Year,Month,Day,Hour,Minute,Value (Times are PST for temperature in C)
2008,07,11,00,00,11.70
2008,07,11,00,01,11.70
2008,07,11,00,02,11.80
2008,07,11,00,03,11.80
2008,07,11,00,04,11.80
2008,07,11,00,05,11.80
2008,07,11,00,06,11.80
2008,07,11,00,07,11.80
2008,07,11,00,08,11.80
2008,07,11,00,09,11.80
2008,07,11,00,10,11.80
2008,07,11,00,11,11.80
2008,07,11,00,12,11.80
2008,07,11,00,13,11.80
2008,07,11,00,14,11.80
2008,07,11,00,15,11.80
2008,07,11,00,16,11.80
2008,07,11,00,17,11.70
2008,07,11,00,18,11.60
2008,07,11,00,19,11.60
2008,07,11,00,20,11.50
2008,07,11,00,21,11.50
2008,07,11,00,22,11.40
2008,07,11,00,23,11.40
2008,07,11,00,24,11.40
2008,07,11,00,25,11.40
2008,07,11,00,26,11.40
2008,07,11,00,27,11.40
2008,07,11,00,28,11.40
2008,07,11,00,29,11.40
2008,07,11,00,30,11.40
2008,07,11,00,31,11.40
2008,07,11,00,32,11.40
2008,07,11,00,33,11.40
2008,07,11,00,34,11.40
2008,07,11,00,35,11.40
2008,07,11,00,36,11.40
2008,07,11,00,37,11.30
2008,07,11,00,38,11.30
2008,07,11,00,39,11.30
2008,07,11,00,40,11.30
2008,07,11,00,41,11.30
2008,07,11,00,42,11.30
2008,07,11,00,43,11.20
2008,07,11,00,44,11.20
2008,07,11,00,45,11.20
2008,07,11,00,46,11.20
2008,07,11,00,47,11.10
2008,07,11,00,48,11.10
2008,07,11,00,49,11.10
2008,07,11,00,50,11.10
2008,07,11,00,51,11.00
2008,07,11,00,52,11.00
2008,07,11,00,53,11.00
2008,07,11,00,54,11.00
2008,07,11,00,55,11.00
2008,07,11,00,56,11.00
2008,07,11,00,57,11.00
2008,07,11,00,58,11.00
2008,07,11,00,59,11.00
2008,07,11,01,00,11.00
2008,07,11,01,01,10.90
2008,07,11,01,02,10.90
2008,07,11,01,03,10.90
2008,07,11,01,04,10.90
2008,07,11,01,05,10.90
2008,07,11,01,06,10.90
2008,07,11,01,07,10.80
2008,07,11,01,08,10.80
2008,07,11,01,09,10.80
2008,07,11,01,10,10.80
2008,07,11,01,11,10.80
2008,07,11,01,12,10.80
2008,07,11,01,13,10.70
2008,07,11,01,14,10.70
2008,07,11,01,15,10.70
2008,07,11,01,16,10.70
2008,07,11,01,17,10.70
2008,07,11,01,18,10.60
2008,07,11,01,19,10.60
2008,07,11,01,20,10.60
2008,07,11,01,21,10.60
2008,07,11,01,22,10.60
2008,07,11,01,23,10.60
2008,07,11,01,24,10.60
2008,07,11,01,25,10.60
2008,07,11,01,26,10.60
2008,07,11,01,27,10.60
2008,07,11,01,28,10.60
2008,07,11,01,29,10.60
2008,07,11,01,30,10.50
2008,07,11,01,31,10.50
2008,07,11,01,32,10.50
2008,07,11,01,33,10.50
2008,07,11,01,34,10.50
2008,07,11,01,35,10.50
2008,07,11,01,36,10.50
2008,07,11,01,37,10.50
2008,07,11,01,38,10.60
2008,07,11,01,39,10.60
2008,07,11,01,40,10.60
2008,07,11,01,41,10.60
2008,07,11,01,42,10.60
2008,07,11,01,43,10.60
2008,07,11,01,44,10.60
2008,07,11,01,45,10.60
2008,07,11,01,46,10.60
2008,07,11,01,47,10.60
2008,07,11,01,48,10.60
2008,07,11,01,49,10.60
2008,07,11,01,50,10.60
2008,07,11,01,51,10.60
2008,07,11,01,52,10.50
2008,07,11,01,53,10.50
2008,07,11,01,54,10.40
2008,07,11,01,55,10.40
2008,07,11,01,56,10.40
2008,07,11,01,57,10.40
2008,07,11,01,58,10.40
2008,07,11,01,59,10.30
2008,07,11,02,00,10.30
2008,07,11,02,01,10.30
2008,07,11,02,02,10.30
2008,07,11,02,03,10.30
2008,07,11,02,04,10.20
2008,07,11,02,05,10.20
2008,07,11,02,06,10.20
2008,07,11,02,07,10.20
2008,07,11,02,08,10.20
2008,07,11,02,09,10.20
2008,07,11,02,10,10.20
2008,07,11,02,11,10.20
2008,07,11,02,12,10.20
2008,07,11,02,13,10.20
2008,07,11,02,14,10.20
2008,07,11,02,15,10.20
2008,07,11,02,16,10.20
2008,07,11,02,17,10.20
2008,07,11,02,18,10.20
2008,07,11,02,19,10.20
2008,07,11,02,20,10.20
2008,07,11,02,21,10.20
2008,07,11,02,22,10.20
2008,07,11,02,23,10.20
2008,07,11,02,24,10.20
2008,07,11,02,25,10.20
2008,07,11,02,26,10.20
2008,07,11,02,27,10.20
2008,07,11,02,28,10.20
2008,07,11,02,29,10.10
2008,07,11,02,30,10.10
2008,07,11,02,31,10.10
2008,07,11,02,32,10.10
2008,07,11,02,33,10.10
2008,07,11,02,34,10.00
2008,07,11,02,35,10.00
2008,07,11,02,36,10.00
2008,07,11,02,37,10.00
2008,07,11,02,38,10.00
2008,07,11,02,39,10.00
2008,07,11,02,40,10.00
2008,07,11,02,41,10.00
2008,07,11,02,42,10.00
2008,07,11,02,43,10.00
2008,07,11,02,44,10.00
2008,07,11,02,45,10.00
2008,07,11,02,46,10.00
2008,07,11,02,47,9.90
2008,07,11,02,48,9.90
2008,07,11,02,49,9.90
2008,07,11,02,50,9.80
2008,07,11,02,51,9.80
2008,07,11,02,52,9.80
2008,07,11,02,53,9.80
2008,07,11,02,54,9.80
2008,07,11,02,55,9.70
2008,07,11,02,56,9.70
2008,07,11,02,57,9.70
2008,07,11,02,58,9.70
2008,07,11,02,59,9.80
2008,07,11,03,00,9.80
2008,07,11,03,01,9.80
2008,07,11,03,02,9.80
2008,07,11,03,03,9.80
2008,07,11,03,04,9.80
2008,07,11,03,05,9.80
2008,07,11,03,06,9.80
2008,07,11,03,07,9.80
2008,07,11,03,08,9.80
2008,07,11,03,09,9.80
2008,07,11,03,10,9.80
2008,07,11,03,11,9.80
2008,07,11,03,12,9.80
2008,07,11,03,13,9.80
2008,07,11,03,14,9.80
2008,07,11,03,15,9.80
2008,07,11,03,16,9.80
2008,07,11,03,17,9.80
2008,07,11,03,18,9.80
2008,07,11,03,19,9.80
2008,07,11,03,20,9.80
2008,07,11,03,21,9.80
2008,07,11,03,22,9.80
2008,07,11,03,23,9.80
2008,07,11,03,24,9.70
2008,07,11,03,25,9.70
2008,07,11,03,26,9.70
2008,07,11,03,27,9.70
2008,07,11,03,28,9.70
2008,07,11,03,29,9.70
2008,07,11,03,30,9.70
2008,07,11,03,31,9.70
2008,07,11,03,32,9.70
2008,07,11,03,33,9.70
2008,07,11,03,34,9.60
2008,07,11,03,35,9.60
2008,07,11,03,36,9.60
2008,07,11,03,37,9.60
2008,07,11,03,38,9.60
2008,07,11,03,39,9.60
2008,07,11,03,40,9.60
2008,07,11,03,41,9.60
2008,07,11,03,42,9.60
2008,07,11,03,43,9.60
2008,07,11,03,44,9.60
2008,07,11,03,45,9.60
2008,07,11,03,46,9.60
2008,07,11,03,47,9.60
2008,07,11,03,48,9.60
2008,07,11,03,49,9.60
2008,07,11,03,50,9.60
2008,07,11,03,51,9.60
2008,07,11,03,52,9.60
2008,07,11,03,53,9.60
2008,07,11,03,54,9.60
2008,07,11,03,55,9.60
2008,07,11,03,56,9.60
2008,07,11,03,57,9.60
2008,07,11,03,58,9.60
2008,07,11,03,59,9.60
2008,07,11,04,00,9.60
2008,07,11,04,01,9.50
2008,07,11,04,02,9.50
2008,07,11,04,03,9.40
2008,07,11,04,04,9.40
2008,07,11,04,05,9.40
2008,07,11,04,06,9.40
2008,07,11,04,07,9.40
2008,07,11,04,08,9.40
2008,07,11,04,09,9.40
2008,07,11,04,10,9.40
2008,07,11,04,11,9.40
2008,07,11,04,12,9.40
2008,07,11,04,13,9.40
2008,07,11,04,14,9.40
2008,07,11,04,15,9.40
2008,07,11,04,16,9.40
2008,07,11,04,17,9.40
2008,07,11,04,18,9.40
2008,07,11,04,19,9.40
2008,07,11,04,20,9.40
2008,07,11,04,21,9.40
2008,07,11,04,22,9.40
2008,07,11,04,23,9.30
2008,07,11,04,24,9.30
2008,07,11,04,25,9.30
2008,07,11,04,26,9.30
2008,07,11,04,27,9.30
2008,07,11,04,28,9.30
2008,07,11,04,29,9.30
2008,07,11,04,30,9.30
2008,07,11,04,31,9.30
2008,07,11,04,32,9.30
2008,07,11,04,33,9.30
2008,07,11,04,34,9.30
2008,07,11,04,35,9.30
2008,07,11,04,36,9.30
2008,07,11,04,37,9.30
2008,07,11,04,38,9.40
2008,07,11,04,39,9.40
2008,07,11,04,40,9.30
2008,07,11,04,41,9.40
2008,07,11,04,42,9.40
2008,07,11,04,43,9.40
2008,07,11,04,44,9.40
2008,07,11,04,45,9.40
2008,07,11,04,46,9.30
2008,07,11,04,47,9.30
2008,07,11,04,48,9.30
2008,07,11,04,49,9.30
2008,07,11,04,50,9.30
2008,07,11,04,51,9.30
2008,07,11,04,52,9.30
2008,07,11,04,53,9.30
2008,07,11,04,54,9.30
2008,07,11,04,55,9.30
2008,07,11,04,56,9.30
2008,07,11,04,57,9.30
2008,07,11,04,58,9.30
2008,07,11,04,59,9.30
2008,07,11,05,00,9.30
2008,07,11,05,01,9.30
2008,07,11,05,02,9.30
2008,07,11,05,03,9.30
2008,07,11,05,04,9.30
2008,07,11,05,05,9.30
2008,07,11,05,06,9.30
2008,07,11,05,07,9.30
2008,07,11,05,08,9.30
2008,07,11,05,09,9.30
2008,07,11,05,10,9.30
2008,07,11,05,11,9.30
2008,07,11,05,12,9.30
2008,07,11,05,13,9.30
2008,07,11,05,14,9.30
2008,07,11,05,15,9.30
2008,07,11,05,16,9.30
2008,07,11,05,17,9.30
2008,07,11,05,18,9.30
2008,07,11,05,19,9.30
2008,07,11,05,20,9.30
2008,07,11,05,21,9.30
2008,07,11,05,22,9.30
2008,07,11,05,23,9.30
2008,07,11,05,24,9.30
2008,07,11,05,25,9.30
2008,07,11,05,26,9.30
2008,07,11,05,27,9.30
2008,07,11,05,28,9.30
2008,07,11,05,29,9.40
2008,07,11,05,30,9.40
2008,07,11,05,31,9.40
2008,07,11,05,32,9.40
2008,07,11,05,33,9.40
2008,07,11,05,34,9.40
2008,07,11,05,35,9.40
2008,07,11,05,36,9.40
2008,07,11,05,37,9.40
2008,07,11,05,38,9.40
2008,07,11,05,39,9.30
2008,07,11,05,40,9.30
2008,07,11,05,41,9.30
2008,07,11,05,42,9.30
2008,07,11,05,43,9.30
2008,07,11,05,44,9.30
2008,07,11,05,45,9.30
2008,07,11,05,46,9.40
2008,07,11,05,47,9.40
2008,07,11,05,48,9.40
2008,07,11,05,49,9.50
2008,07,11,05,50,9.50
2008,07,11,05,51,9.50
2008,07,11,05,52,9.50
2008,07,11,05,53,9.60
2008,07,11,05,54,9.60
2008,07,11,05,55,9.60
2008,07,11,05,56,9.60
2008,07,11,05,57,9.60
2008,07,11,05,58,9.60
2008,07,11,05,59,9.60
2008,07,11,06,00,9.60
2008,07,11,06,01,9.60
2008,07,11,06,02,9.60
2008,07,11,06,03,9.60
2008,07,11,06,04,9.60
2008,07,11,06,05,9.60
2008,07,11,06,06,9.60
2008,07,11,06,07,9.60
2008,07,11,06,08,9.60
2008,07,11,06,09,9.60
2008,07,11,06,10,9.60
2008,07,11,06,11,9.60
2008,07,11,06,12,9.60
2008,07,11,06,13,9.60
2008,07,11,06,14,9.60
2008,07,11,06,15,9.70
2008,07,11,06,16,9.70
2008,07,11,06,17,9.70
2008,07,11,06,18,9.70
2008,07,11,06,19,9.70
2008,07,11,06,20,9.70
2008,07,11,06,21,9.70
2008,07,11,06,22,9.80
2008,07,11,06,23,9.80
2008,07,11,06,24,9.80
2008,07,11,06,25,9.80
2008,07,11,06,26,9.90
2008,07,11,06,27,9.90
2008,07,11,06,28,9.90
2008,07,11,06,29,9.90
2008,07,11,06,30,10.00
2008,07,11,06,31,10.00
2008,07,11,06,32,10.10
2008,07,11,06,33,10.10
2008,07,11,06,34,10.10
2008,07,11,06,35,10.20
2008,07,11,06,36,10.20
2008,07,11,06,37,10.20
2008,07,11,06,38,10.30
2008,07,11,06,39,10.30
2008,07,11,06,40,10.40
2008,07,11,06,41,10.40
2008,07,11,06,42,10.50
2008,07,11,06,43,10.50
2008,07,11,06,44,10.60
2008,07,11,06,45,10.70
2008,07,11,06,46,10.70
2008,07,11,06,47,10.80
2008,07,11,06,48,10.80
2008,07,11,06,49,10.90
2008,07,11,06,50,11.00
2008,07,11,06,51,11.10
2008,07,11,06,52,11.20
2008,07,11,06,53,11.30
2008,07,11,06,54,11.40
2008,07,11,06,55,11.50
2008,07,11,06,56,11.60
2008,07,11,06,57,11.70
2008,07,11,06,58,11.80
2008,07,11,06,59,11.90
2008,07,11,07,00,12.00
2008,07,11,07,01,12.10
2008,07,11,07,02,12.20
2008,07,11,07,03,12.30
2008,07,11,07,04,12.40
2008,07,11,07,05,12.50
2008,07,11,07,06,12.60
2008,07,11,07,07,12.70
2008,07,11,07,08,12.80
2008,07,11,07,09,12.90
2008,07,11,07,10,13.00
2008,07,11,07,11,13.10
2008,07,11,07,12,13.20
2008,07,11,07,13,13.30
2008,07,11,07,14,13.40
2008,07,11,07,15,13.50
2008,07,11,07,16,13.60
2008,07,11,07,17,13.70
2008,07,11,07,18,13.80
2008,07,11,07,19,13.90
2008,07,11,07,20,14.00
2008,07,11,07,21,14.10
2008,07,11,07,22,14.20
2008,07,11,07,23,14.20
2008,07,11,07,24,14.30
2008,07,11,07,25,14.40
2008,07,11,07,26,14.50
2008,07,11,07,27,14.50
2008,07,11,07,28,14.60
2008,07,11,07,29,14.60
2008,07,11,07,30,14.70
2008,07,11,07,31,14.70
2008,07,11,07,32,14.80
2008,07,11,07,33,14.80
2008,07,11,07,34,14.80
2008,07,11,07,35,14.90
2008,07,11,07,36,15.00
2008,07,11,07,37,15.00
2008,07,11,07,38,15.00
2008,07,11,07,39,15.00
2008,07,11,07,40,15.00
2008,07,11,07,41,15.00
2008,07,11,07,42,15.00
2008,07,11,07,43,15.00
2008,07,11,07,44,15.00
2008,07,11,07,45,15.10
2008,07,11,07,46,15.10
2008,07,11,07,47,15.10
2008,07,11,07,48,15.20
2008,07,11,07,49,15.20
2008,07,11,07,50,15.30
2008,07,11,07,51,15.30
2008,07,11,07,52,15.30
2008,07,11,07,53,15.40
2008,07,11,07,54,15.40
2008,07,11,07,55,15.40
2008,07,11,07,56,15.50
2008,07,11,07,57,15.50
2008,07,11,07,58,15.60
2008,07,11,07,59,15.60
2008,07,11,08,00,15.70
2008,07,11,08,01,15.70
2008,07,11,08,02,15.80
2008,07,11,08,03,15.90
2008,07,11,08,04,16.00
2008,07,11,08,05,16.20
2008,07,11,08,06,16.30
2008,07,11,08,07,16.40
2008,07,11,08,08,16.50
2008,07,11,08,09,16.50
2008,07,11,08,10,16.60
2008,07,11,08,11,16.60
2008,07,11,08,12,16.60
2008,07,11,08,13,16.70
2008,07,11,08,14,16.80
2008,07,11,08,15,16.80
2008,07,11,08,16,16.90
2008,07,11,08,17,16.90
2008,07,11,08,18,17.00
2008,07,11,08,19,17.10
2008,07,11,08,20,17.20
2008,07,11,08,21,17.30
2008,07,11,08,22,17.30
2008,07,11,08,23,17.40
2008,07,11,08,24,17.50
2008,07,11,08,25,17.50
2008,07,11,08,26,17.60
2008,07,11,08,27,17.60
2008,07,11,08,28,17.60
2008,07,11,08,29,17.60
2008,07,11,08,30,17.70
2008,07,11,08,31,17.70
2008,07,11,08,32,17.70
2008,07,11,08,33,17.70
2008,07,11,08,34,17.70
2008,07,11,08,35,17.70
2008,07,11,08,36,17.60
2008,07,11,08,37,17.60
2008,07,11,08,38,17.60
2008,07,11,08,39,17.60
2008,07,11,08,40,17.60
2008,07,11,08,41,17.60
2008,07,11,08,42,17.60
2008,07,11,08,43,17.60
2008,07,11,08,44,17.70
2008,07,11,08,45,17.60
2008,07,11,08,46,17.60
2008,07,11,08,47,17.60
2008,07,11,08,48,17.50
2008,07,11,08,49,17.50
2008,07,11,08,50,17.50
2008,07,11,08,51,17.50
2008,07,11,08,52,17.50
2008,07,11,08,53,17.50
2008,07,11,08,54,17.50
2008,07,11,08,55,17.60
2008,07,11,08,56,17.60
2008,07,11,08,57,17.70
2008,07,11,08,58,17.70
2008,07,11,08,59,17.80
2008,07,11,09,00,17.80
2008,07,11,09,01,17.90
2008,07,11,09,02,18.00
2008,07,11,09,03,18.00
2008,07,11,09,04,18.00
2008,07,11,09,05,18.00
2008,07,11,09,06,18.00
2008,07,11,09,07,18.10
2008,07,11,09,08,18.00
2008,07,11,09,09,18.00
2008,07,11,09,10,18.00
2008,07,11,09,11,18.00
2008,07,11,09,12,18.00
2008,07,11,09,13,18.00
2008,07,11,09,14,17.90
2008,07,11,09,15,17.90
2008,07,11,09,16,17.90
2008,07,11,09,17,17.90
2008,07,11,09,18,17.90
2008,07,11,09,19,18.00
2008,07,11,09,20,18.00
2008,07,11,09,21,17.90
2008,07,11,09,22,18.00
2008,07,11,09,23,18.00
2008,07,11,09,24,18.10
2008,07,11,09,25,18.10
2008,07,11,09,26,18.20
2008,07,11,09,27,18.20
2008,07,11,09,28,18.30
2008,07,11,09,29,18.40
2008,07,11,09,30,18.40
2008,07,11,09,31,18.50
2008,07,11,09,32,18.50
2008,07,11,09,33,18.60
2008,07,11,09,34,18.60
2008,07,11,09,35,18.60
2008,07,11,09,36,18.70
2008,07,11,09,37,18.60
2008,07,11,09,38,18.60
2008,07,11,09,39,18.60
2008,07,11,09,40,18.70
2008,07,11,09,41,18.70
2008,07,11,09,42,18.80
2008,07,11,09,43,18.80
2008,07,11,09,44,18.90
2008,07,11,09,45,18.70
2008,07,11,09,46,18.60
2008,07,11,09,47,18.50
2008,07,11,09,48,18.40
2008,07,11,09,49,18.40
2008,07,11,09,50,18.40
2008,07,11,09,51,18.40
2008,07,11,09,52,18.30
2008,07,11,09,53,18.40
2008,07,11,09,54,18.40
2008,07,11,09,55,18.50
2008,07,11,09,56,18.60
2008,07,11,09,57,18.50
2008,07,11,09,58,18.50
2008,07,11,09,59,18.60
2008,07,11,10,00,18.60
2008,07,11,10,01,18.70
2008,07,11,10,02,18.70
2008,07,11,10,03,18.80
2008,07,11,10,04,18.90
2008,07,11,10,05,18.80
2008,07,11,10,06,18.80
2008,07,11,10,07,18.70
2008,07,11,10,08,18.70
2008,07,11,10,09,18.70
2008,07,11,10,10,18.70
2008,07,11,10,11,18.80
2008,07,11,10,12,18.80
2008,07,11,10,13,18.80
2008,07,11,10,14,18.80
2008,07,11,10,15,18.80
2008,07,11,10,16,18.90
2008,07,11,10,17,18.90
2008,07,11,10,18,19.10
2008,07,11,10,19,19.20
2008,07,11,10,20,19.30
2008,07,11,10,21,19.40
2008,07,11,10,22,19.50
2008,07,11,10,23,19.60
2008,07,11,10,24,19.60
2008,07,11,10,25,19.70
2008,07,11,10,26,19.80
2008,07,11,10,27,19.70
2008,07,11,10,28,19.60
2008,07,11,10,29,19.50
2008,07,11,10,30,19.40
2008,07,11,10,31,19.30
2008,07,11,10,32,19.30
2008,07,11,10,33,19.20
2008,07,11,10,34,19.20
2008,07,11,10,35,19.20
2008,07,11,10,36,19.20
2008,07,11,10,37,19.20
2008,07,11,10,38,19.20
2008,07,11,10,39,19.30
2008,07,11,10,40,19.30
2008,07,11,10,41,19.40
2008,07,11,10,42,19.40
2008,07,11,10,43,19.40
2008,07,11,10,44,19.40
2008,07,11,10,45,19.40
2008,07,11,10,46,19.40
2008,07,11,10,47,19.40
2008,07,11,10,48,19.50
2008,07,11,10,49,19.70
2008,07,11,10,50,19.80
2008,07,11,10,51,19.90
2008,07,11,10,52,19.90
2008,07,11,10,53,19.80
2008,07,11,10,54,19.80
2008,07,11,10,55,19.90
2008,07,11,10,56,19.90
2008,07,11,10,57,19.90
2008,07,11,10,58,20.00
2008,07,11,10,59,19.90
2008,07,11,11,00,20.00
2008,07,11,11,01,20.10
2008,07,11,11,02,20.20
2008,07,11,11,03,20.20
2008,07,11,11,04,20.20
2008,07,11,11,05,20.20
2008,07,11,11,06,20.20
2008,07,11,11,07,20.10
2008,07,11,11,08,20.10
2008,07,11,11,09,20.00
2008,07,11,11,10,20.00
2008,07,11,11,11,19.90
2008,07,11,11,12,19.80
2008,07,11,11,13,19.80
2008,07,11,11,14,19.70
2008,07,11,11,15,19.60
2008,07,11,11,16,19.60
2008,07,11,11,17,19.60
2008,07,11,11,18,19.60
2008,07,11,11,19,19.50
2008,07,11,11,20,19.30
2008,07,11,11,21,19.20
2008,07,11,11,22,19.20
2008,07,11,11,23,19.10
2008,07,11,11,24,19.10
2008,07,11,11,25,19.00
2008,07,11,11,26,19.00
2008,07,11,11,27,19.00
2008,07,11,11,28,18.90
2008,07,11,11,29,18.90
2008,07,11,11,30,19.00
2008,07,11,11,31,19.20
2008,07,11,11,32,19.40
2008,07,11,11,33,19.50
2008,07,11,11,34,19.70
2008,07,11,11,35,19.70
2008,07,11,11,36,19.70
2008,07,11,11,37,19.80
2008,07,11,11,38,19.80
2008,07,11,11,39,19.70
2008,07,11,11,40,19.70
2008,07,11,11,41,19.70
2008,07,11,11,42,19.70
2008,07,11,11,43,19.80
2008,07,11,11,44,19.80
2008,07,11,11,45,20.00
2008,07,11,11,46,20.10
2008,07,11,11,47,20.30
2008,07,11,11,48,20.40
2008,07,11,11,49,20.40
2008,07,11,11,50,20.50
2008,07,11,11,51,20.60
2008,07,11,11,52,20.60
2008,07,11,11,53,20.60
2008,07,11,11,54,20.60
2008,07,11,11,55,20.70
2008,07,11,11,56,20.80
2008,07,11,11,57,20.70
2008,07,11,11,58,20.70
2008,07,11,11,59,20.60
2008,07,11,12,00,20.70
2008,07,11,12,01,20.70
2008,07,11,12,02,20.90
2008,07,11,12,03,21.10
2008,07,11,12,04,21.30
2008,07,11,12,05,21.30
2008,07,11,12,06,21.10
2008,07,11,12,07,21.10
2008,07,11,12,08,21.10
2008,07,11,12,09,21.20
2008,07,11,12,10,21.10
2008,07,11,12,11,21.00
2008,07,11,12,12,21.10
2008,07,11,12,13,21.00
2008,07,11,12,14,20.90
2008,07,11,12,15,20.70
2008,07,11,12,16,20.60
2008,07,11,12,17,20.40
2008,07,11,12,18,20.30
2008,07,11,12,19,20.20
2008,07,11,12,20,20.20
2008,07,11,12,21,20.20
2008,07,11,12,22,20.10
2008,07,11,12,23,20.00
2008,07,11,12,24,20.00
2008,07,11,12,25,20.00
2008,07,11,12,26,20.00
2008,07,11,12,27,19.90
2008,07,11,12,28,19.90
2008,07,11,12,29,19.90
2008,07,11,12,30,19.80
2008,07,11,12,31,19.80
2008,07,11,12,32,19.90
2008,07,11,12,33,20.00
2008,07,11,12,34,20.10
2008,07,11,12,35,20.30
2008,07,11,12,36,20.40
2008,07,11,12,37,20.40
2008,07,11,12,38,20.50
2008,07,11,12,39,20.50
2008,07,11,12,40,20.60
2008,07,11,12,41,20.70
2008,07,11,12,42,20.80
2008,07,11,12,43,20.90
2008,07,11,12,44,20.90
2008,07,11,12,45,20.90
2008,07,11,12,46,20.80
2008,07,11,12,47,20.70
2008,07,11,12,48,20.70
2008,07,11,12,49,20.70
2008,07,11,12,50,20.70
2008,07,11,12,51,20.70
2008,07,11,12,52,20.70
2008,07,11,12,53,20.80
2008,07,11,12,54,20.90
2008,07,11,12,55,21.10
2008,07,11,12,56,21.20
2008,07,11,12,57,21.10
2008,07,11,12,58,21.00
2008,07,11,12,59,21.00
2008,07,11,13,00,21.10
2008,07,11,13,01,21.20
2008,07,11,13,02,21.40
2008,07,11,13,03,21.50
2008,07,11,13,04,21.50
2008,07,11,13,05,21.60
2008,07,11,13,06,21.70
2008,07,11,13,07,21.80
2008,07,11,13,08,21.90
2008,07,11,13,09,22.00
2008,07,11,13,10,22.10
2008,07,11,13,11,22.20
2008,07,11,13,12,22.30
2008,07,11,13,13,22.30
2008,07,11,13,14,22.30
2008,07,11,13,15,22.50
2008,07,11,13,16,22.60
2008,07,11,13,17,22.80
2008,07,11,13,18,22.90
2008,07,11,13,19,23.00
2008,07,11,13,20,23.10
2008,07,11,13,21,23.10
2008,07,11,13,22,23.10
2008,07,11,13,23,23.10
2008,07,11,13,24,22.90
2008,07,11,13,25,22.70
2008,07,11,13,26,22.40
2008,07,11,13,27,22.20
2008,07,11,13,28,21.90
2008,07,11,13,29,21.70
2008,07,11,13,30,21.60
2008,07,11,13,31,21.50
2008,07,11,13,32,21.50
2008,07,11,13,33,21.50
2008,07,11,13,34,21.50
2008,07,11,13,35,21.50
2008,07,11,13,36,21.40
2008,07,11,13,37,21.40
2008,07,11,13,38,21.40
2008,07,11,13,39,21.50
2008,07,11,13,40,21.70
2008,07,11,13,41,21.70
2008,07,11,13,42,21.80
2008,07,11,13,43,21.80
2008,07,11,13,44,21.80
2008,07,11,13,45,21.80
2008,07,11,13,46,21.70
2008,07,11,13,47,21.60
2008,07,11,13,48,21.50
2008,07,11,13,49,21.60
2008,07,11,13,50,21.80
2008,07,11,13,51,21.80
2008,07,11,13,52,21.80
2008,07,11,13,53,21.70
2008,07,11,13,54,21.70
2008,07,11,13,55,21.70
2008,07,11,13,56,21.80
2008,07,11,13,57,21.80
2008,07,11,13,58,21.90
2008,07,11,13,59,21.90
2008,07,11,14,00,22.00
2008,07,11,14,01,22.00
2008,07,11,14,02,21.90
2008,07,11,14,03,22.00
2008,07,11,14,04,21.90
2008,07,11,14,05,21.90
2008,07,11,14,06,21.90
2008,07,11,14,07,22.10
2008,07,11,14,08,22.10
2008,07,11,14,09,22.20
2008,07,11,14,10,22.20
2008,07,11,14,11,22.10
2008,07,11,14,12,22.10
2008,07,11,14,13,22.10
2008,07,11,14,14,22.10
2008,07,11,14,15,22.10
2008,07,11,14,16,22.30
2008,07,11,14,17,22.40
2008,07,11,14,18,22.40
2008,07,11,14,19,22.30
2008,07,11,14,20,22.40
2008,07,11,14,21,22.50
2008,07,11,14,22,22.60
2008,07,11,14,23,22.70
2008,07,11,14,24,22.80
2008,07,11,14,25,22.90
2008,07,11,14,26,23.00
2008,07,11,14,27,23.00
2008,07,11,14,28,23.10
2008,07,11,14,29,23.10
2008,07,11,14,30,23.00
2008,07,11,14,31,22.90
2008,07,11,14,32,22.90
2008,07,11,14,33,22.90
2008,07,11,14,34,22.90
2008,07,11,14,35,22.90
2008,07,11,14,36,22.90
2008,07,11,14,37,22.80
2008,07,11,14,38,22.70
2008,07,11,14,39,22.70
2008,07,11,14,40,22.80
2008,07,11,14,41,22.80
2008,07,11,14,42,22.80
2008,07,11,14,43,22.90
2008,07,11,14,44,22.80
2008,07,11,14,45,22.70
2008,07,11,14,46,22.60
2008,07,11,14,47,22.60
2008,07,11,14,48,22.70
2008,07,11,14,49,22.80
2008,07,11,14,50,22.80
2008,07,11,14,51,22.80
2008,07,11,14,52,22.60
2008,07,11,14,53,22.50
2008,07,11,14,54,22.40
2008,07,11,14,55,22.40
2008,07,11,14,56,22.40
2008,07,11,14,57,22.30
2008,07,11,14,58,22.30
2008,07,11,14,59,22.50
2008,07,11,15,00,22.60
2008,07,11,15,01,22.80
2008,07,11,15,02,22.90
2008,07,11,15,03,22.90
2008,07,11,15,04,22.90
2008,07,11,15,05,22.90
2008,07,11,15,06,22.80
2008,07,11,15,07,22.70
2008,07,11,15,08,22.50
2008,07,11,15,09,22.50
2008,07,11,15,10,22.60
2008,07,11,15,11,22.70
2008,07,11,15,12,22.80
2008,07,11,15,13,22.80
2008,07,11,15,14,22.90
2008,07,11,15,15,22.80
2008,07,11,15,16,22.90
2008,07,11,15,17,23.00
2008,07,11,15,18,23.00
2008,07,11,15,19,22.90
2008,07,11,15,20,22.80
2008,07,11,15,21,22.70
2008,07,11,15,22,22.70
2008,07,11,15,23,22.70
2008,07,11,15,24,22.70
2008,07,11,15,25,22.70
2008,07,11,15,26,22.70
2008,07,11,15,27,22.70
2008,07,11,15,28,22.70
2008,07,11,15,29,22.90
2008,07,11,15,30,23.00
2008,07,11,15,31,23.00
2008,07,11,15,32,23.00
2008,07,11,15,33,23.00
2008,07,11,15,34,23.10
2008,07,11,15,35,23.20
2008,07,11,15,36,23.30
2008,07,11,15,37,23.30
2008,07,11,15,38,23.20
2008,07,11,15,39,23.10
2008,07,11,15,40,23.10
2008,07,11,15,41,23.10
2008,07,11,15,42,23.20
2008,07,11,15,43,23.20
2008,07,11,15,44,23.30
2008,07,11,15,45,23.20
2008,07,11,15,46,23.20
2008,07,11,15,47,23.20
2008,07,11,15,48,23.20
2008,07,11,15,49,23.10
2008,07,11,15,50,23.10
2008,07,11,15,51,23.20
2008,07,11,15,52,23.30
2008,07,11,15,53,23.30
2008,07,11,15,54,23.30
2008,07,11,15,55,23.30
2008,07,11,15,56,23.20
2008,07,11,15,57,23.10
2008,07,11,15,58,23.10
2008,07,11,15,59,23.10
2008,07,11,16,00,23.10
2008,07,11,16,01,23.30
2008,07,11,16,02,23.40
2008,07,11,16,03,23.50
2008,07,11,16,04,23.60
2008,07,11,16,05,23.60
2008,07,11,16,06,23.60
2008,07,11,16,07,23.60
2008,07,11,16,08,23.60
2008,07,11,16,09,23.50
2008,07,11,16,10,23.50
2008,07,11,16,11,23.60
2008,07,11,16,12,23.50
2008,07,11,16,13,23.50
2008,07,11,16,14,23.50
2008,07,11,16,15,23.60
2008,07,11,16,16,23.60
2008,07,11,16,17,23.70
2008,07,11,16,18,23.80
2008,07,11,16,19,23.90
2008,07,11,16,20,24.00
2008,07,11,16,21,24.00
2008,07,11,16,22,24.00
2008,07,11,16,23,23.90
2008,07,11,16,24,23.90
2008,07,11,16,25,23.90
2008,07,11,16,26,23.70
2008,07,11,16,27,23.60
2008,07,11,16,28,23.60
2008,07,11,16,29,23.70
2008,07,11,16,30,23.80
2008,07,11,16,31,23.80
2008,07,11,16,32,23.80
2008,07,11,16,33,23.80
2008,07,11,16,34,23.70
2008,07,11,16,35,23.60
2008,07,11,16,36,23.60
2008,07,11,16,37,23.70
2008,07,11,16,38,23.80
2008,07,11,16,39,23.80
2008,07,11,16,40,23.80
2008,07,11,16,41,23.70
2008,07,11,16,42,23.70
2008,07,11,16,43,23.70
2008,07,11,16,44,23.70
2008,07,11,16,45,23.60
2008,07,11,16,46,23.50
2008,07,11,16,47,23.40
2008,07,11,16,48,23.40
2008,07,11,16,49,23.40
2008,07,11,16,50,23.40
2008,07,11,16,51,23.40
2008,07,11,16,52,23.40
2008,07,11,16,53,23.50
2008,07,11,16,54,23.70
2008,07,11,16,55,23.80
2008,07,11,16,56,23.90
2008,07,11,16,57,23.90
2008,07,11,16,58,23.90
2008,07,11,16,59,23.90
2008,07,11,17,00,23.80
2008,07,11,17,01,23.80
2008,07,11,17,02,23.70
2008,07,11,17,03,23.70
2008,07,11,17,04,23.70
2008,07,11,17,05,23.70
2008,07,11,17,06,23.70
2008,07,11,17,07,23.80
2008,07,11,17,08,23.80
2008,07,11,17,09,23.80
2008,07,11,17,10,23.90
2008,07,11,17,11,23.90
2008,07,11,17,12,23.90
2008,07,11,17,13,23.90
2008,07,11,17,14,23.90
2008,07,11,17,15,23.80
2008,07,11,17,16,23.80
2008,07,11,17,17,23.80
2008,07,11,17,18,23.80
2008,07,11,17,19,23.80
2008,07,11,17,20,23.90
2008,07,11,17,21,23.90
2008,07,11,17,22,24.00
2008,07,11,17,23,24.10
2008,07,11,17,24,24.20
2008,07,11,17,25,24.30
2008,07,11,17,26,24.30
2008,07,11,17,27,24.30
2008,07,11,17,28,24.40
2008,07,11,17,29,24.50